[[{"header":{"parameterUnit":"m.s-1","parameterCategory":1,"la1":30.2991,"la2":30.254,"lo1":-89.0895,"lo2":-89.0444,"dy":0.0017,"dx":0.0017,"nx":28,"ny":28,"refTime":"2024-04-22T21:00:00:Z","depth":0,"parameterNumber":2,"parameterNumberName":"U-component_of_WINDS"},"data":[0,0,0,0,0,0,0,0,0,0,0,0,0,0,0,0,0,0,0,0,0,0,0,0,0,0,0,0,0,0,0,0,0,0,0,0,0,0,0,0,0,0,0,0,0,0,0,0,0,0,0,0,0,0,0,0,0,0,-3.1244,-3.1244,0,-3.1249,-3.1249,-3.1249,-3.1175,-3.1173,-3.1171,-3.1169,-3.1174,-3.1176,-3.1178,0,0,0,0,0,0,0,0,0,0,0,0,0,-3.1171,-3.1173,-3.1244,-3.1244,-3.1244,-3.1249,-3.1249,-3.1249,-3.1175,-3.1173,-3.117,-3.1168,-3.1174,-3.1176,-3.1179,0,0,0,0,0,0,0,0,0,0,0,0,0,-3.1192,-3.1173,-3.1244,-3.1208,-3.1205,-3.1249,-3.1249,-3.1249,-3.1176,-3.1172,-3.1169,-3.1167,-3.1173,-3.1176,-3.1179,-3.1259,0,0,-3.1188,-3.119,0,0,0,0,0,0,0,0,-3.1191,-3.1195,-3.1213,-3.1211,-3.1207,-3.1208,-3.1225,-3.1253,-3.1176,-3.1187,-3.1169,-3.1165,-3.1188,-3.119,-3.1197,-3.1259,-3.1259,-3.1189,-3.119,-3.1192,-3.1193,0,0,0,0,0,0,0,-3.119,-3.1194,-3.1246,-3.1214,-3.121,-3.1191,-3.1191,-3.123,-3.1204,-3.1186,-3.118,-3.1182,-3.1186,-3.1195,-3.1197,-3.1259,-3.1188,-3.1191,-3.1193,-3.1194,-3.1387,-3.139,0,0,0,0,0,0,-3.1193,-3.1194,-3.1246,-3.1246,-3.1191,-3.1195,-3.1195,-3.1211,-3.1204,-3.12,-3.1184,-3.1178,-3.1191,-3.1193,-3.1197,-3.1291,-3.1192,-3.1195,-3.1196,-3.1384,-3.1388,-3.1391,0,0,0,0,0,0,-3.1192,-3.1199,-3.1246,-3.1219,-3.1223,-3.12,-3.1218,-3.1213,-3.1221,-3.1203,-3.1198,-3.1198,-3.1189,-3.1193,-3.1244,-3.129,-3.1196,-3.1199,-3.138,-3.1385,-3.139,-3.1479,0,0,0,0,0,0,-3.119,-3.1199,-3.1229,-3.122,-3.1225,-3.1293,-3.1221,-3.1215,-3.1227,-3.1219,-3.1214,-3.1211,-3.1187,-3.124,-3.1247,-3.1292,-3.1201,-3.1376,-3.1382,-3.1388,-3.1472,-3.1486,-3.1498,0,0,0,0,0,-3.1188,-3.1253,-3.1231,-3.1237,-3.1262,-3.1296,-3.1299,-3.1269,-3.1231,-3.1261,-3.1249,-3.1211,-3.1283,-3.1246,-3.1253,-3.13,-3.1373,-3.1381,-3.1388,-3.1466,-3.1483,-3.1498,0,0,0,0,0,0,-3.1268,-3.1252,-3.1226,-3.1291,-3.1295,-3.1283,-3.132,-3.1289,-3.1305,-3.1297,-3.126,-3.1259,-3.1317,-3.1313,-3.1272,-3.1377,-3.1321,-3.1331,-3.1378,-3.1395,-3.1408,-3.1408,-3.1204,0,0,0,0,0,-3.1294,-3.1323,-3.1306,-3.1365,-3.1368,-3.1344,-3.1358,-3.1335,-3.1338,-3.134,-3.1332,-3.1337,-3.136,-3.1377,-3.1398,-3.147,-3.1468,-3.1506,-3.1519,-3.153,-3.1539,-3.1578,-3.1595,-3.1416,-3.1416,-3.1416,0,0,-3.1347,-3.1341,-3.1361,-3.1381,-3.1382,-3.1413,-3.1346,-3.1382,-3.1405,-3.1345,-3.1394,-3.1388,-3.1391,-3.1453,-3.148,-3.1452,-3.1588,-3.154,-3.1549,-3.1552,-3.1588,-3.1605,-3.162,-3.1421,-3.142,-3.1419,0,0,-3.1459,-3.1457,-3.1506,-3.1508,-3.151,-3.1494,-3.1506,-3.1498,-3.1492,-3.154,-3.1496,-3.1522,-3.1564,-3.1568,-3.1576,-3.1689,-3.1655,-3.1697,-3.1768,-3.1806,-3.182,-3.1833,-3.1874,-3.189,-3.1706,-3.1706,-3.1706,0,-3.1524,-3.1569,-3.1535,-3.1574,-3.1585,-3.1531,-3.1581,-3.1585,-3.1594,-3.1602,-3.157,-3.1621,-3.1619,-3.1683,-3.1711,-3.1718,-3.1731,-3.1698,-3.1821,-3.1833,-3.1844,-3.1883,-3.1899,-3.1711,-3.171,-3.171,-3.1709,0,-3.165,-3.1682,-3.1722,-3.1732,-3.1746,-3.179,-3.1763,-3.1782,-3.1757,-3.1744,-3.1794,-3.179,-3.1809,-3.1822,-3.1798,-3.1882,-3.1865,-3.1827,-3.177,-3.1867,-3.1903,-3.1918,-3.1718,-3.1716,-3.1715,-3.1714,0,0,-3.1815,-3.1805,-3.1821,-3.1825,-3.1823,-3.1847,-3.1888,-3.1907,-3.1925,-3.1932,-3.1967,-3.2003,-3.1968,-3.1977,-3.1953,-3.1987,-3.2078,-3.1945,-3.1944,-3.1971,-3.2172,-3.2201,-3.2219,-3.2055,-3.2058,-3.206,-3.2172,0,-3.1925,-3.1996,-3.1967,-3.2041,-3.207,-3.202,-3.2056,-3.2059,-3.2048,-3.2071,-3.2058,-3.2085,-3.2037,-3.2042,-3.2072,-3.2061,-3.2118,-3.2052,-3.2088,-3.209,-3.2091,-3.2238,-3.2269,-3.2375,-3.2186,-3.2188,-3.219,0,-3.2064,-3.2078,-3.2155,-3.2148,-3.2159,-3.2192,-3.2207,-3.223,-3.2232,-3.2221,-3.2231,-3.22,-3.224,-3.2183,-3.2239,-3.2194,-3.2207,-3.2203,-3.2207,-3.221,-3.2147,-3.2247,-3.2408,-3.2425,-3.2212,-3.221,-3.2209,0,-3.2179,-3.2216,-3.2267,-3.2271,-3.2264,-3.2289,-3.2287,-3.2286,-3.23,-3.2313,-3.2321,-3.2339,-3.2349,-3.2363,-3.2337,-3.2297,-3.2397,-3.2337,-3.2391,-3.2392,-3.2415,-3.2415,-3.2583,-3.2421,-3.2421,-3.242,-3.242,0,-3.2306,-3.2356,-3.2318,-3.235,-3.2404,-3.2369,-3.2423,-3.2416,-3.2415,-3.2445,-3.2402,-3.243,-3.2394,-3.2419,-3.2399,-3.2449,-3.2453,-3.2447,-3.2441,-3.2452,-3.2453,-3.2461,-3.2453,-3.2425,-3.2424,-3.2423,-3.2422,0,-3.2444,-3.2421,-3.2473,-3.2462,-3.246,-3.2501,-3.2491,-3.252,-3.2505,-3.2543,-3.255,-3.2527,-3.2554,-3.2529,-3.2555,-3.2542,-3.2609,-3.2592,-3.2609,-3.2605,-3.266,-3.2656,-3.284,-3.2863,-3.2686,-3.2687,-3.2689,0,-3.2528,-3.2565,-3.2557,-3.2574,-3.2575,-3.2602,-3.2615,-3.2582,-3.2598,-3.2603,-3.2632,-3.2655,-3.2673,-3.2719,-3.2704,-3.2724,-3.2708,-3.2772,-3.2711,-3.2721,-3.2711,-3.271,-3.2714,-3.2785,-3.2787,-3.2788,-3.279,0,-3.2679,-3.2666,-3.2687,-3.2704,-3.2721,-3.2733,-3.2741,-3.2757,-3.2723,-3.2743,-3.277,-3.2784,-3.281,-3.2835,-3.285,-3.2848,-3.2814,-3.2809,-3.2822,-3.2834,-3.2843,-3.2841,-3.2644,-3.2805,-3.2804,-3.2802,-3.2802,-3.2801,-3.2794,-3.2824,-3.2824,-3.2849,-3.2852,-3.2861,-3.2888,-3.2876,-3.2898,-3.2917,-3.2896,-3.293,-3.2931,-3.2948,-3.295,-3.2976,-3.295,-3.2969,-3.2974,-3.298,-3.2989,-3.2838,-3.2978,-3.2978,-3.2978,-3.2977,-3.2977,0,-3.2945,-3.2942,-3.2965,-3.2978,-3.2998,-3.2963,-3.297,-3.2989,-3.3019,-3.3023,-3.3041,-3.3073,-3.3096,-3.3083,-3.3103,-3.3127,-3.3112,-3.3133,-3.3132,-3.3133,-3.3011,-3.2998,-3.3145,-3.3145,-3.3145,-3.3145,-3.3145,-3.3145,-3.3026,-3.3076,-3.3063,-3.3114,-3.3111,-3.3144,-3.3151,-3.3159,-3.3162,-3.3199,-3.3218,-3.321,-3.3207,-3.3227,-3.3247,-3.3242,-3.3252,-3.328,-3.3271,-3.3157,-3.3141,-3.3125,-3.3113,-3.3282,-3.3282,-3.339,-3.3391,-3.3392]},{"header":{"parameterUnit":"m.s-1","parameterCategory":1,"la1":30.2991,"la2":30.254,"lo1":-89.0895,"lo2":-89.0444,"dy":0.0017,"dx":0.0017,"nx":28,"ny":28,"refTime":"2024-04-22T21:00:00:Z","depth":0,"parameterNumber":3,"parameterNumberName":"V-component_of_WINDS"},"data":[0,0,0,0,0,0,0,0,0,0,0,0,0,0,0,0,0,0,0,0,0,0,0,0,0,0,0,0,0,0,0,0,0,0,0,0,0,0,0,0,0,0,0,0,0,0,0,0,0,0,0,0,0,0,0,0,0,0,-5.5192,-5.5192,0,-5.5228,-5.5229,-5.5229,-5.5173,-5.5171,-5.5169,-5.5167,-5.5201,-5.5203,-5.5206,0,0,0,0,0,0,0,0,0,0,0,0,0,-5.5071,-5.5073,-5.5192,-5.5192,-5.5193,-5.5228,-5.5229,-5.5229,-5.5173,-5.5171,-5.5168,-5.5166,-5.52,-5.5203,-5.5206,0,0,0,0,0,0,0,0,0,0,0,0,0,-5.5117,-5.5074,-5.5192,-5.5169,-5.5168,-5.5228,-5.5229,-5.5229,-5.5174,-5.5171,-5.5168,-5.5165,-5.5199,-5.5203,-5.5207,-5.529,0,0,-5.5219,-5.5221,0,0,0,0,0,0,0,0,-5.5114,-5.5121,-5.5172,-5.5171,-5.5169,-5.5193,-5.5198,-5.525,-5.5174,-5.5171,-5.5167,-5.5164,-5.52,-5.5204,-5.5217,-5.5292,-5.5293,-5.522,-5.5222,-5.5224,-5.5225,0,0,0,0,0,0,0,-5.5111,-5.5119,-5.5206,-5.5173,-5.5171,-5.5156,-5.516,-5.5208,-5.5202,-5.5171,-5.5167,-5.5173,-5.5199,-5.5213,-5.5218,-5.5294,-5.5219,-5.5223,-5.5226,-5.5227,-5.5439,-5.5442,0,0,0,0,0,0,-5.5111,-5.5117,-5.5205,-5.5207,-5.5134,-5.5161,-5.5164,-5.5188,-5.5201,-5.52,-5.5175,-5.517,-5.5208,-5.5213,-5.5219,-5.5318,-5.5224,-5.5228,-5.523,-5.5435,-5.5439,-5.5443,0,0,0,0,0,0,-5.5109,-5.5119,-5.5204,-5.5161,-5.5171,-5.5166,-5.5193,-5.5191,-5.5205,-5.5204,-5.5202,-5.5191,-5.5206,-5.5213,-5.5273,-5.5318,-5.5229,-5.5233,-5.5432,-5.5437,-5.5441,-5.5516,0,0,0,0,0,0,-5.5105,-5.5119,-5.5151,-5.5162,-5.5173,-5.5259,-5.5196,-5.5193,-5.5213,-5.5206,-5.5219,-5.5218,-5.5204,-5.5267,-5.5277,-5.5322,-5.5236,-5.5428,-5.5434,-5.544,-5.551,-5.5523,-5.5534,0,0,0,0,0,-5.5101,-5.517,-5.5153,-5.5164,-5.5214,-5.5262,-5.5268,-5.5252,-5.5216,-5.5249,-5.5248,-5.5217,-5.5311,-5.5274,-5.5285,-5.5331,-5.5425,-5.5432,-5.5439,-5.5504,-5.552,-5.5534,0,0,0,0,0,0,-5.5163,-5.5171,-5.5153,-5.5227,-5.5244,-5.5252,-5.5292,-5.5269,-5.5295,-5.5288,-5.5266,-5.5269,-5.5334,-5.5338,-5.5297,-5.5413,-5.5362,-5.5372,-5.5408,-5.5423,-5.5435,-5.5433,-5.524,0,0,0,0,0,-5.5186,-5.5225,-5.5229,-5.5294,-5.5304,-5.5297,-5.5317,-5.5303,-5.5319,-5.5326,-5.533,-5.5346,-5.5379,-5.5401,-5.5431,-5.5509,-5.5511,-5.5547,-5.5559,-5.5569,-5.5578,-5.562,-5.5636,-5.5466,-5.5466,-5.5466,0,0,-5.5232,-5.5241,-5.5267,-5.5307,-5.5319,-5.5359,-5.5303,-5.5348,-5.5377,-5.5332,-5.539,-5.5393,-5.5409,-5.548,-5.551,-5.5485,-5.5625,-5.5578,-5.5586,-5.559,-5.5629,-5.5645,-5.5659,-5.5471,-5.547,-5.5469,0,0,-5.5338,-5.5349,-5.5405,-5.5418,-5.5437,-5.5431,-5.5445,-5.5456,-5.5457,-5.5515,-5.5483,-5.5516,-5.5574,-5.5587,-5.5601,-5.5713,-5.5686,-5.5723,-5.5787,-5.5829,-5.5842,-5.5854,-5.5894,-5.5909,-5.5731,-5.5732,-5.5732,0,-5.5393,-5.5454,-5.5436,-5.5484,-5.5502,-5.5465,-5.5521,-5.5534,-5.5561,-5.5575,-5.5546,-5.5618,-5.5626,-5.5699,-5.5726,-5.5739,-5.5753,-5.5722,-5.5842,-5.5853,-5.5864,-5.5902,-5.5917,-5.5736,-5.5735,-5.5735,-5.5735,0,-5.5521,-5.5563,-5.5606,-5.5635,-5.5658,-5.571,-5.57,-5.5725,-5.5709,-5.5707,-5.5766,-5.5774,-5.5806,-5.5822,-5.5807,-5.5893,-5.5877,-5.5845,-5.5794,-5.5885,-5.5921,-5.5935,-5.5742,-5.5741,-5.5739,-5.5738,0,0,-5.5666,-5.5686,-5.5702,-5.5715,-5.5733,-5.5765,-5.5815,-5.5847,-5.587,-5.589,-5.5931,-5.598,-5.5952,-5.5968,-5.5953,-5.599,-5.6078,-5.5953,-5.5953,-5.5977,-5.6174,-5.6199,-5.6216,-5.606,-5.6063,-5.6065,-5.6173,0,-5.5772,-5.586,-5.5846,-5.593,-5.5969,-5.5934,-5.5977,-5.5993,-5.5992,-5.6024,-5.6022,-5.6058,-5.6017,-5.6027,-5.6061,-5.606,-5.6117,-5.6052,-5.6098,-5.61,-5.6096,-5.6234,-5.626,-5.6362,-5.6187,-5.6189,-5.6191,0,-5.5908,-5.5935,-5.6024,-5.6037,-5.6052,-5.6092,-5.6121,-5.6152,-5.6168,-5.6165,-5.6184,-5.6163,-5.6211,-5.6159,-5.6226,-5.6182,-5.6199,-5.6202,-5.6205,-5.6209,-5.6151,-5.6243,-5.6394,-5.641,-5.6213,-5.6211,-5.6209,0,-5.6006,-5.6064,-5.6125,-5.6138,-5.6154,-5.6182,-5.619,-5.6204,-5.6224,-5.6249,-5.6262,-5.6292,-5.6308,-5.6331,-5.6318,-5.6281,-5.6387,-5.6334,-5.6386,-5.6386,-5.641,-5.6409,-5.6567,-5.642,-5.642,-5.642,-5.6419,0,-5.6127,-5.6183,-5.617,-5.6208,-5.6269,-5.6252,-5.6313,-5.6316,-5.6329,-5.6365,-5.6336,-5.6371,-5.6351,-5.6385,-5.6374,-5.6432,-5.6439,-5.6437,-5.6434,-5.6441,-5.6441,-5.6452,-5.6445,-5.6424,-5.6423,-5.6422,-5.6421,0,-5.6248,-5.6241,-5.6306,-5.6316,-5.632,-5.6365,-5.6373,-5.6408,-5.6405,-5.6452,-5.6462,-5.6457,-5.6494,-5.6484,-5.6524,-5.6517,-5.659,-5.6577,-5.6585,-5.6582,-5.6635,-5.663,-5.6807,-5.6829,-5.6667,-5.6669,-5.667,0,-5.6325,-5.6368,-5.6384,-5.6407,-5.6418,-5.6455,-5.6477,-5.6461,-5.6484,-5.6506,-5.6538,-5.6574,-5.6601,-5.6663,-5.6662,-5.6693,-5.6681,-5.674,-5.6685,-5.6691,-5.6683,-5.6681,-5.6685,-5.6752,-5.6754,-5.6755,-5.6756,0,-5.6464,-5.6459,-5.6492,-5.6524,-5.6551,-5.6575,-5.6596,-5.6616,-5.6602,-5.6629,-5.6668,-5.669,-5.6732,-5.6767,-5.6796,-5.6802,-5.6777,-5.6774,-5.6787,-5.6795,-5.6798,-5.6798,-5.6616,-5.677,-5.6768,-5.6767,-5.6767,-5.6766,-5.6566,-5.6603,-5.662,-5.6658,-5.6672,-5.6693,-5.6726,-5.6728,-5.6761,-5.6795,-5.6783,-5.6828,-5.6842,-5.6878,-5.6888,-5.6922,-5.69,-5.6919,-5.6924,-5.693,-5.6937,-5.6792,-5.6927,-5.6927,-5.6926,-5.6926,-5.6926,0,-5.6705,-5.6714,-5.6749,-5.678,-5.681,-5.6785,-5.6807,-5.6833,-5.6873,-5.689,-5.6918,-5.6963,-5.6997,-5.6999,-5.7031,-5.7058,-5.7048,-5.7067,-5.7065,-5.7068,-5.6955,-5.6941,-5.7075,-5.7075,-5.7075,-5.7075,-5.7075,-5.7075,-5.678,-5.6841,-5.6838,-5.6906,-5.6914,-5.6959,-5.6974,-5.6992,-5.7006,-5.7058,-5.7087,-5.7089,-5.7099,-5.7132,-5.7162,-5.7162,-5.7175,-5.72,-5.7195,-5.709,-5.7075,-5.7061,-5.7047,-5.7202,-5.7203,-5.7304,-5.7305,-5.7306]}]]